DW0224 Weather Reports


time (UTC)temp
F
wind
direction
speed
knots
gust
knots
rain 1hr
in
rain 24hr
in
rain mn
in
humidity
%
barometer
mb
20260505130131 58 316 0.9 5.2 0.00 0.00 0.00 81 1004.9
20260505130109 58 215 0.9 5.2 0.00 0.00 0.00 79 1004.8
20260505124633 58 271 0.9 4.3 0.00 0.00 0.00 76 1004.8
20260505124133 58 257 1.7 5.2 0.00 0.00 0.00 74 1004.9
20260505123633 59 240 1.7 5.2 0.00 0.00 0.00 71 1004.9
20260505123133 60 250 1.7 5.2 0.00 0.00 0.00 69 1004.9
20260505122631 61 246 0.9 5.2 0.00 0.00 0.00 70 1004.5
20260505122131 61 259 0.0 0.0 0.00 0.00 0.00 68 1004.5
20260505121858 61 215 0.0 0.0 0.00 0.00 0.00 66 1004.5
20260505121130 61 180 0.0 0.0 0.00 0.00 0.00 70 1004.5
20260505120857 60 252 0.0 0.0 0.00 0.00 0.00 69 1004.5
20260505120130 60 241 0.0 0.0 0.00 0.00 0.00 71 1004.5
20260505115630 60 194 0.0 0.0 0.00 0.00 0.00 72 1004.7
20260505115129 59 248 0.0 0.0 0.00 0.00 0.00 73 1004.7
20260505114855 59 253 0.0 0.0 0.00 0.00 0.00 72 1004.7
20260505114130 59 240 0.0 0.0 0.00 0.00 0.00 72 1004.7
20260505113631 59 184 0.0 0.0 0.00 0.00 0.00 71 1004.7
20260505113130 59 269 0.0 0.0 0.00 0.00 0.00 73 1004.7
20260505112630 60 132 0.0 0.0 0.00 0.00 0.00 76 1004.6
20260505112622 60 162 0.0 0.0 0.00 0.00 0.00 77 1004.6
20260505111631 59 209 0.0 0.0 0.00 0.00 0.00 79 1004.6
20260505111358 59 257 0.0 0.0 0.00 0.00 0.00 80 1004.8
20260505110631 59 250 0.0 0.0 0.00 0.00 0.00 78 1004.8
20260505110130 58 195 0.0 0.0 0.00 0.00 0.00 80 1004.8
20260505102111 57 252 0.0 0.0 0.00 0.00 0.00 89 1004.9
20260505101610 56 230 0.0 0.0 0.00 0.00 0.00 89 1004.9
20260505101111 56 250 0.0 0.0 0.00 0.00 0.00 89 1004.9
20260505100611 56 163 0.0 0.0 0.00 0.00 0.00 89 1004.9
20260505100108 56 155 0.0 0.0 0.00 0.00 0.00 90 1004.9
20260505095606 56 136 0.0 0.0 0.00 0.00 0.00 89 1004.9
20260505095107 56 196 0.0 0.0 0.00 0.00 0.00 90 1004.9
20260505094606 56 254 0.0 0.0 0.00 0.00 0.00 90 1004.9
20260505094104 56 222 0.0 0.0 0.00 0.00 0.00 90 1004.7
20260505093604 56 180 0.0 0.0 0.00 0.00 0.00 91 1004.7
20260505093331 56 165 0.0 0.0 0.00 0.00 0.00 91 1004.7
20260505092830 56 229 0.0 0.0 0.00 0.00 0.00 91 1004.7
20260505092103 55 226 0.0 0.0 0.00 0.00 0.00 91 1004.7
20260505091603 55 224 0.0 0.0 0.00 0.00 0.00 91 1004.7
20260505091102 55 203 0.0 0.0 0.00 0.00 0.00 91 1004.8
20260505090602 55 180 0.0 0.0 0.00 0.00 0.00 92 1004.8
20260505085829 55 181 0.0 0.0 0.00 0.00 0.00 92 1004.7
20260505085320 55 188 0.0 0.0 0.00 0.00 0.00 92 1004.7
20260505085104 55 188 0.0 0.0 0.00 0.00 0.00 92 1004.7
20260505084602 55 185 0.0 0.0 0.00 0.00 0.00 92 1004.7
20260505084102 55 177 0.0 0.0 0.00 0.00 0.00 93 1004.7
20260505083602 55 208 0.0 0.0 0.00 0.00 0.00 93 1004.7
20260505083102 55 208 0.0 0.0 0.00 0.00 0.00 93 1004.7
20260505082601 55 217 0.0 0.0 0.00 0.00 0.00 93 1004.8
20260505082102 54 207 0.0 0.0 0.00 0.00 0.00 93 1004.8
20260505081604 54 207 0.0 0.0 0.00 0.00 0.00 94 1004.8
20260505081558 55 184 0.0 0.0 0.00 0.00 0.00 94 1004.8
20260505080602 54 205 0.0 0.0 0.00 0.00 0.00 94 1004.8
20260505075603 54 181 0.0 0.0 0.00 0.00 0.00 95 1004.9
20260505075102 54 201 0.0 0.0 0.00 0.00 0.00 95 1004.9
20260505074603 54 201 0.0 0.0 0.00 0.00 0.00 96 1004.9
20260505074102 53 201 0.0 0.0 0.00 0.00 0.00 96 1005.1
20260505073603 53 200 0.0 0.0 0.00 0.00 0.00 95 1005.1
20260505073102 53 192 0.0 0.0 0.00 0.00 0.00 95 1005.1
20260505072602 53 192 0.0 0.0 0.00 0.00 0.00 96 1005.2
20260505072102 54 198 0.0 0.0 0.00 0.00 0.00 96 1005.2
20260505071603 54 217 0.0 0.0 0.00 0.00 0.00 96 1005.2
20260505071102 54 225 0.0 0.0 0.00 0.00 0.00 96 1005.4
20260505070559 53 225 0.0 0.0 0.00 0.00 0.00 96 1005.4
20260505070058 53 225 0.0 0.0 0.00 0.00 0.00 96 1005.4
20260505065556 53 194 0.0 0.0 0.00 0.00 0.00 96 1005.4
20260505065054 53 194 0.0 0.0 0.00 0.00 0.00 96 1005.4
20260505064552 53 196 0.0 0.0 0.00 0.00 0.00 96 1005.4
20260505064050 53 175 0.0 0.0 0.00 0.00 0.00 96 1005.7
20260505063548 53 200 0.0 0.0 0.00 0.00 0.00 96 1005.7
20260505063045 53 223 0.0 0.0 0.00 0.00 0.00 96 1005.7
20260505062545 52 223 0.0 0.0 0.00 0.00 0.00 96 1006.0
20260505062046 52 223 0.0 0.0 0.00 0.00 0.00 96 1006.0
20260505061546 52 223 0.0 0.0 0.00 0.00 0.00 96 1006.0
20260505061047 52 223 0.0 0.0 0.00 0.00 0.00 96 1006.3
20260505060544 52 223 0.0 0.0 0.00 0.00 0.00 96 1006.3
20260505060041 52 223 0.0 0.0 0.00 0.00 0.00 96 1006.3
20260505055812 52 223 0.0 0.0 0.00 0.00 0.00 96 1006.4
20260505055037 52 223 0.0 0.0 0.00 0.00 0.00 96 1006.4
20260505054536 52 223 0.0 0.0 0.00 0.00 0.00 95 1006.4
20260505054033 52 223 0.0 0.0 0.00 0.00 0.00 95 1006.4
20260505053531 52 223 0.0 0.0 0.00 0.00 0.00 95 1006.4
20260505053031 52 223 0.0 0.0 0.00 0.00 0.00 95 1006.4
20260505052531 52 223 0.0 0.0 0.00 0.00 0.00 95 1006.2
20260505052032 52 223 0.0 0.0 0.00 0.00 0.00 95 1006.2
20260505051530 52 223 0.0 0.0 0.00 0.00 0.00 95 1006.2
20260505051030 52 223 0.0 0.0 0.00 0.00 0.00 95 1006.3
20260505050755 51 223 0.0 0.0 0.00 0.00 0.00 95 1006.3
20260505041530 51 223 0.0 0.0 0.00 0.00 0.00 94 1006.1
20260505041254 51 223 0.0 0.0 0.00 0.00 0.00 94 1006.1
20260505040757 51 223 0.0 0.0 0.00 0.00 0.00 94 1006.1
20260505040031 51 223 0.0 0.0 0.00 0.00 0.00 94 1006.1
20260505035531 51 223 0.0 0.0 0.00 0.00 0.00 94 1006.1
20260505035032 51 223 0.0 0.0 0.00 0.00 0.00 94 1006.1
20260505034754 51 223 0.0 0.0 0.00 0.00 0.00 94 1006.1
20260505034030 51 223 0.0 0.0 0.00 0.00 0.00 94 1006.1
20260505033530 51 223 0.0 0.0 0.00 0.00 0.00 94 1006.1
20260505033031 51 223 0.0 0.0 0.00 0.00 0.00 94 1006.1
20260505032531 51 223 0.0 0.0 0.00 0.00 0.00 94 1006.1
20260505032255 51 223 0.0 0.0 0.00 0.00 0.00 94 1006.1
20260505031754 51 223 0.0 0.0 0.00 0.00 0.00 94 1006.1
20260505031030 51 223 0.0 0.0 0.00 0.00 0.00 94 1006.3
20260505030530 51 223 0.0 0.0 0.00 0.00 0.00 94 1006.3
20260505030254 51 223 0.0 0.0 0.00 0.00 0.00 94 1006.3
20260505025531 51 223 0.0 0.0 0.00 0.00 0.00 94 1006.5
20260505025031 51 225 0.0 0.0 0.00 0.00 0.00 94 1006.5
20260505024531 51 217 0.0 0.0 0.00 0.00 0.00 94 1006.5
20260505024300 51 222 0.0 0.0 0.00 0.00 0.00 94 1006.7
20260505023551 51 222 0.0 0.0 0.00 0.00 0.00 94 1006.7
20260505023542 51 222 0.0 0.0 0.00 0.00 0.00 94 1006.7
20260505022031 51 222 0.0 0.0 0.00 0.00 0.00 94 1006.7
20260505021530 51 225 0.0 0.0 0.00 0.00 0.00 94 1006.7
20260505021031 51 225 0.0 0.0 0.00 0.00 0.00 94 1006.6
20260505020519 51 200 0.0 0.0 0.00 0.00 0.00 94 1006.6
20260505020012 51 200 0.0 0.0 0.00 0.00 0.00 94 1006.6
20260505015512 51 200 0.0 0.0 0.00 0.00 0.00 94 1006.6
20260505015011 51 200 0.0 0.0 0.00 0.00 0.00 94 1006.6
20260505014511 51 200 0.0 0.0 0.00 0.00 0.00 94 1006.6
20260505014009 51 200 0.0 0.0 0.00 0.00 0.00 94 1006.7
20260505013507 51 200 0.0 0.0 0.00 0.00 0.00 94 1006.7
20260505013005 51 200 0.0 0.0 0.00 0.00 0.00 94 1006.7
20260505012503 51 200 0.0 0.0 0.00 0.00 0.00 94 1006.6
20260505012003 51 200 0.0 0.0 0.00 0.00 0.00 94 1006.6
20260505011503 51 200 0.0 0.0 0.00 0.00 0.00 94 1006.6
20260505011002 51 200 0.0 0.0 0.00 0.00 0.00 94 1006.6
20260505010502 51 200 0.0 0.0 0.00 0.00 0.00 94 1006.6
20260505010002 51 200 0.0 0.0 0.00 0.00 0.00 94 1006.6
20260505005503 51 200 0.0 0.0 0.00 0.00 0.00 94 1006.9
20260505005002 51 200 0.0 0.0 0.00 0.00 0.00 94 1006.9
20260505004503 51 200 0.0 0.0 0.00 0.00 0.00 94 1006.9
20260505004003 51 200 0.0 0.0 0.00 0.00 0.00 94 1007.2
20260505003502 51 200 0.0 0.0 0.00 0.00 0.00 94 1007.2
20260505003002 51 200 0.0 0.0 0.00 0.00 0.00 94 1007.2
20260505002727 51 200 0.0 0.0 0.00 0.00 0.00 94 1007.5
20260505002002 51 200 0.0 0.0 0.00 0.00 0.00 94 1007.5
20260505001728 51 200 0.0 0.0 0.00 0.00 0.00 94 1007.5
20260505001003 51 200 0.0 0.0 0.00 0.00 0.00 94 1007.6
20260505000502 51 200 0.0 0.0 0.00 0.00 0.00 94 1007.6
20260505000004 51 200 0.0 0.0 0.00 0.00 0.00 94 1007.6
20260504235731 51 200 0.0 0.0 0.00 0.00 0.00 94 1007.6
20260504235002 50 200 0.0 0.0 0.00 0.00 0.00 94 1007.6
20260504234503 50 200 0.0 0.0 0.00 0.00 0.00 94 1007.6
20260504234002 50 248 0.0 0.0 0.00 0.00 0.00 94 1008.0
20260504233502 50 247 0.0 0.0 0.00 0.00 0.00 94 1008.0
20260504233002 50 248 0.0 0.0 0.00 0.00 0.00 94 1008.0
20260504232502 50 248 0.0 0.0 0.00 0.00 0.00 94 1008.2
20260504232003 50 247 0.0 0.0 0.00 0.00 0.00 94 1008.2
20260504231502 50 247 0.0 0.0 0.00 0.00 0.00 94 1008.2
20260504231002 49 247 0.0 0.0 0.00 0.00 0.00 94 1008.2
20260504230502 49 247 0.0 0.0 0.00 0.00 0.00 94 1008.2
20260504230227 49 247 0.0 0.0 0.00 0.00 0.00 93 1008.2
20260504225727 49 247 0.0 0.0 0.00 0.00 0.00 93 1008.2
20260504225229 49 248 0.0 0.0 0.00 0.00 0.00 93 1008.2
20260504224503 49 248 0.0 0.0 0.00 0.00 0.00 93 1008.2
20260504224003 49 247 0.0 0.0 0.00 0.00 0.00 93 1008.3
20260504223503 49 247 0.0 0.0 0.00 0.00 0.00 93 1008.3
20260504223005 49 247 0.0 0.0 0.00 0.00 0.00 93 1008.3
20260504222504 49 247 0.0 0.0 0.00 0.00 0.00 93 1008.3
20260504222231 49 247 0.0 0.0 0.00 0.00 0.00 92 1008.3
20260504221503 49 247 0.0 0.0 0.00 0.00 0.00 92 1008.3
20260504221452 49 247 0.0 0.0 0.00 0.00 0.00 92 1008.3
20260504220504 49 247 0.0 0.0 0.00 0.00 0.00 92 1008.3
20260504220005 49 248 0.0 0.0 0.00 0.00 0.00 92 1008.3
20260504215503 49 248 0.0 0.0 0.00 0.00 0.00 92 1008.6
20260504215230 49 248 0.0 0.0 0.00 0.00 0.00 92 1008.6
20260504214503 49 248 0.0 0.0 0.00 0.00 0.00 92 1008.6
20260504214004 49 247 0.0 0.0 0.00 0.00 0.00 92 1008.7
20260504213504 49 247 0.0 0.0 0.00 0.00 0.00 92 1008.7
20260504213003 49 248 0.0 0.0 0.00 0.00 0.00 91 1008.7
20260504212503 49 247 0.0 0.0 0.00 0.00 0.00 91 1008.7
20260504212226 49 247 0.0 0.0 0.00 0.00 0.00 91 1008.7
20260504211456 49 247 0.0 0.0 0.00 0.00 0.00 91 1008.7
20260504210944 50 247 0.0 0.0 0.00 0.00 0.00 91 1008.7
20260504210707 50 247 0.0 0.0 0.00 0.00 0.00 91 1008.7
20260504205938 50 248 0.0 0.0 0.00 0.00 0.00 91 1008.7
20260504205438 50 248 0.0 0.0 0.00 0.00 0.00 91 1008.7
20260504205206 50 247 0.0 0.0 0.00 0.00 0.00 91 1008.7
20260504204435 50 247 0.0 0.0 0.00 0.00 0.00 91 1008.7
20260504204157 50 248 0.0 0.0 0.00 0.00 0.00 91 1008.7
20260504203434 50 247 0.0 0.0 0.00 0.00 0.00 90 1008.7
20260504202934 50 247 0.0 0.0 0.00 0.00 0.00 90 1008.7
20260504202434 51 247 0.0 0.0 0.00 0.00 0.00 90 1009.0
20260504201933 51 247 0.0 0.0 0.00 0.00 0.00 90 1009.0
20260504201431 51 247 0.0 0.0 0.00 0.00 0.00 90 1009.0
20260504200930 51 247 0.0 0.0 0.00 0.00 0.00 90 1009.2
20260504200431 51 247 0.0 0.0 0.00 0.00 0.00 90 1009.2
20260504195928 51 248 0.0 0.0 0.00 0.00 0.00 90 1009.2
20260504195647 51 247 0.0 0.0 0.00 0.00 0.00 90 1009.2
20260504194918 52 247 0.0 0.0 0.00 0.00 0.00 89 1009.2
20260504194412 52 248 0.0 0.0 0.00 0.00 0.00 89 1009.1
20260504194130 52 248 0.0 0.0 0.00 0.00 0.00 89 1009.1
20260504193408 52 248 0.0 0.0 0.00 0.00 0.00 89 1009.1
20260504192908 52 247 0.0 0.0 0.00 0.00 0.00 89 1008.9
20260504192406 52 248 0.0 0.0 0.00 0.00 0.00 89 1008.9
20260504192134 53 248 0.0 0.0 0.00 0.00 0.00 89 1008.9
20260504191404 53 248 0.0 0.0 0.00 0.00 0.00 89 1009.1
20260504190904 53 247 0.0 0.0 0.00 0.00 0.00 89 1009.1
20260504190404 53 248 0.0 0.0 0.00 0.00 0.00 89 1009.1
20260504190131 53 247 0.0 0.0 0.00 0.00 0.00 89 1009.2
20260504185625 53 247 0.0 0.0 0.00 0.00 0.00 89 1009.2
20260504185129 54 247 0.0 0.0 0.00 0.00 0.00 89 1009.2
20260504184404 54 247 0.0 0.0 0.00 0.00 0.00 89 1009.2
20260504183904 54 247 0.0 0.0 0.00 0.00 0.00 89 1009.2
20260504183626 54 247 0.0 0.0 0.00 0.00 0.00 89 1009.2
20260504182904 54 247 0.0 0.0 0.00 0.00 0.00 89 1009.2
20260504182403 54 248 0.0 0.0 0.00 0.00 0.00 89 1009.2
20260504181903 54 247 0.0 0.0 0.00 0.00 0.00 89 1009.2
20260504181628 54 247 0.0 0.0 0.00 0.00 0.00 89 1009.2
20260504181127 54 265 0.0 0.9 0.00 0.00 0.00 89 1009.2
20260504180405 55 286 0.0 0.9 0.00 0.00 0.00 89 1009.2
20260504175904 55 250 0.0 0.9 0.00 0.00 0.00 89 1009.1
20260504175637 55 250 0.0 0.9 0.00 0.00 0.00 89 1009.1
20260504174903 55 250 0.0 0.0 0.00 0.00 0.00 89 1009.1
20260504174629 55 250 0.0 0.9 0.00 0.00 0.00 90 1009.2
20260504174128 55 250 0.0 0.9 0.00 0.00 0.00 90 1009.2
20260504173403 55 250 0.0 0.9 0.00 0.00 0.00 90 1009.2
20260504172902 55 250 0.0 0.9 0.00 0.00 0.00 90 1009.3
20260504172402 55 250 0.0 0.0 0.00 0.00 0.00 90 1009.3
20260504171902 55 250 0.0 0.0 0.00 0.00 0.00 90 1009.3
20260504171403 55 250 0.0 0.0 0.00 0.00 0.00 90 1009.5
20260504171135 55 250 0.0 0.0 0.00 0.00 0.00 90 1009.5
20260504170855 55 250 0.0 0.9 0.00 0.00 0.00 90 1009.5
20260504160333 55 211 0.0 0.9 0.00 0.00 0.00 92 1009.8
20260504151100 55 238 0.9 7.0 0.00 0.00 0.00 89 1010.9
20260504150554 55 225 0.0 1.7 0.00 0.00 0.00 88 1010.9
20260504141330 58 293 0.9 4.3 0.00 0.00 0.00 79 1010.1
20260504140831 59 207 1.7 4.3 0.00 0.00 0.00 77 1010.1
20260504140331 59 247 1.7 3.5 0.00 0.00 0.00 76 1010.1